User: anonymous   Login
Location: Caltech
(34.1382°N, 118.1253°W)
Time: 23:33:30
(UTC-07:00)
Language:

GPS 2-04 Rocket1 - Orbit

View from above orbital plane
View from above orbital plane
View from above satellite
View from above satellite

Ground track
Ground track

The orbit data is extracted from the following two-line orbital elements,

1 20303U 89085B   15109.91184078  .00014536  00000-0  61030-3 0  9994
2 20303 035.6309 266.3378 0125459 066.3054 068.0131 15.15733089380351
Epoch (UTC): 19 April 2015 21:53:03
Eccentricity: 0.0125459
inclination: 35.6309°
perigee height: 432 km
apogee height: 605 km
right ascension of ascending node: 266.3378°
argument of perigee: 66.3054°
revolutions per day: 15.15733089
mean anomaly at epoch: 68.0131°
orbit number at epoch: 38035

The dashed part of the orbit path shows where the satellite is in the earth's shadow,  

DLR